Temp
18 19 19 19 20 21 21 22 22 22 23 23 24 25 26 26 27 27 28 27 27 28 29 29 30 30 31 30 29 28 23 24 26 26 27 27 26 26 26 25 24 23 24 23 22
18 19 19 20 20 21 21 22 22 22 23 23 24 25 26 26 27 27 27 27 27 28 29 29 29 30 30 30 29 25 21 26 26 27 28 28 27 26 25 24 23 23 24 23 22
18 19 19 20 20 20 21 22 22 22 23 24 24 25 26 26 27 27 27 27 27 28 28 29 29 29 29 29 28 25 24 26 27 28 29 28 28 28 25 23 24 23 24 22 22
18 19 19 20 20 21 21 22 22 23 23 24 24 25 26 26 25 27 27 27 27 28 28 29 29 29 26 27 28 27 27 27 29 29 28 27 29 26 26 27 28 27 26 22 22
18 19 19 20 21 21 21 22 22 23 23 24 24 25 26 27 27 27 27 27 27 27 28 28 28 28 27 27 27 27 27 29 29 30 29 29 28 27 26 28 28 25 24 23 23
18 19 19 20 21 21 22 22 22 23 23 24 24 25 25 25 27 27 27 27 27 27 28 28 28 28 28 27 27 28 28 29 30 30 29 28 27 29 26 27 26 25 24 24 23
18 18 19 20 21 21 22 22 22 23 23 24 24 24 25 27 27 27 27 27 27 28 28 28 28 28 28 27 28 27 27 27 29 29 30 29 27 26 28 25 24 24 24 24 24
17 18 19 20 21 21 22 22 23 23 24 24 24 24 25 27 27 27 27 27 27 27 28 28 28 28 28 28 26 25 24 25 28 29 30 29 26 27 27 24 22 23 23 23 24
17 18 18 19 20 21 22 22 23 24 24 24 24 24 25 26 27 27 27 27 27 27 28 28 28 27 27 24 23 21 25 26 25 27 28 28 27 27 24 23 22 22 23 23 24
17 17 18 19 20 21 22 23 23 23 23 23 23 23 26 26 26 27 27 27 26 27 28 28 27 21 20 22 24 26 25 25 24 26 28 28 27 24 23 23 22 22 23 23 24
16 17 18 19 20 21 22 23 22 22 22 23 23 24 25 26 26 27 27 27 26 27 23 24 21 23 25 24 24 25 25 24 24 26 27 27 28 27 24 24 23 23 23 23 24
16 17 18 18 20 20 20 20 18 19 19 24 24 24 25 25 25 27 27 27 26 24 24 21 22 23 24 24 25 24 25 25 25 26 27 26 28 26 22 24 24 23 23 24 24
15 16 17 18 20 20 20 19 19 20 18 22 24 24 26 26 26 27 27 27 25 24 24 22 25 25 25 26 26 25 25 27 26 25 25 25 25 25 24 23 25 25 23 25 25
15 16 17 18 19 19 19 20 20 21 14 19 22 25 25 26 26 27 27 27 25 24 22 23 24 26 26 26 25 26 26 27 27 25 25 22 22 22 21 20 21 22 23 23 21
15 15 16 17 18 18 19 20 21 21 18 23 23 25 25 26 27 26 27 27 24 24 23 24 26 26 26 27 26 26 27 26 25 22 23 22 21 21 20 21 20 21 22 21 20
14 15 16 17 18 18 19 20 21 16 18 22 24 24 24 25 26 26 26 27 27 25 25 24 27 26 26 28 27 25 24 20 17 18 21 22 21 21 21 21 20 20 20 20 20
15 15 16 17 18 18 19 20 15 16 20 23 23 23 22 23 24 26 24 24 22 22 23 24 26 26 28 28 26 23 20 19 22 19 21 20 21 21 21 21 21 19 20 21 20
15 16 17 17 17 18 19 16 18 18 18 20 22 22 22 23 24 24 23 22 23 22 20 22 23 26 27 27 25 24 21 19 23 20 21 19 24 22 20 20 21 22 23 21 22
16 16 17 17 18 18 18 13 15 17 20 20 20 23 23 23 24 24 21 21 22 22 23 21 24 25 26 27 26 24 23 20 17 17 19 19 22 22 20 19 20 19 20 21 22
16 16 16 17 17 17 14 13 15 17 19 21 21 22 22 22 22 21 20 22 23 22 24 23 24 25 26 26 24 25 21 22 17 22 23 20 20 21 21 19 18 19 20 22 24
16 16 16 16 16 17 12 11 15 19 19 21 21 21 22 23 21 20 21 23 23 22 23 20 22 24 24 25 23 23 21 17 16 17 19 20 20 18 20 18 17 19 22 22 24
15 12 15 15 14 8 11 13 17 19 20 20 20 20 21 22 22 19 21 22 24 22 22 21 19 21 23 24 23 24 22 19 19 21 15 17 20 20 19 19 20 21 22 22 21
14 14 14 15 11 10 11 14 17 18 19 20 20 20 21 21 22 22 22 25 24 22 21 20 19 19 21 22 24 24 22 17 15 15 17 19 20 19 18 19 20 20 21 21 21
13 11 14 15 13 13 14 14 15 19 18 19 19 20 21 21 20 22 21 24 23 22 23 23 16 19 20 22 22 24 23 20 19 19 18 18 22 22 19 18 19 20 21 21 20
12 9 10 11 11 12 13 14 15 15 18 18 19 18 21 21 20 20 20 20 22 21 20 19 21 20 21 22 23 23 23 22 23 20 22 22 20 20 19 17 19 19 19 21 19
11 10 11 11 10 11 10 14 14 15 16 18 18 19 18 19 20 21 19 21 21 20 19 16 18 21 22 23 24 23 23 22 22 20 22 21 20 17 16 17 19 18 19 20 19
10 10 10 10 10 11 12 14 14 14 17 19 18 17 18 19 20 20 20 19 19 20 19 18 17 19 20 21 23 22 22 22 19 17 19 21 20 15 16 18 19 21 21 22 20
Height
1531 1531 1530 1528 1527 1525 1523 1521 1520 1519 1517 1515 1513 1511 1510 1509 1507 1507 1508 1508 1507 1505 1505 1505 1504 1503 1503 1504 1506 1506 1520 1528 1521 1521 1514 1513 1516 1519 1519 1518 1520 1522 1520 1520 1523
1530 1530 1529 1527 1527 1525 1524 1521 1520 1519 1517 1515 1513 1512 1509 1507 1506 1507 1508 1507 1506 1505 1504 1504 1505 1504 1504 1505 1506 1507 1524 1517 1510 1508 1510 1510 1512 1515 1519 1519 1519 1519 1521 1522 1523
1530 1529 1528 1527 1526 1524 1523 1521 1519 1519 1516 1515 1513 1511 1509 1507 1508 1507 1506 1506 1506 1506 1506 1505 1504 1504 1504 1505 1506 1508 1516 1507 1508 1508 1507 1508 1510 1513 1516 1519 1515 1515 1518 1522 1524
1529 1528 1527 1526 1525 1523 1522 1519 1519 1518 1516 1514 1512 1511 1509 1508 1513 1508 1507 1506 1506 1506 1506 1505 1504 1504 1505 1506 1505 1509 1504 1505 1505 1507 1507 1507 1509 1513 1514 1512 1510 1513 1517 1521 1524
1528 1527 1526 1525 1522 1521 1520 1519 1518 1517 1516 1513 1512 1510 1509 1509 1509 1508 1508 1507 1507 1507 1507 1505 1505 1504 1507 1506 1506 1506 1503 1502 1503 1503 1505 1506 1507 1511 1512 1510 1511 1515 1518 1521 1523
1527 1526 1524 1523 1521 1520 1519 1518 1517 1516 1514 1513 1512 1510 1510 1510 1508 1508 1508 1508 1508 1508 1507 1506 1506 1506 1505 1507 1508 1506 1504 1500 1499 1501 1502 1502 1506 1510 1511 1510 1512 1515 1517 1521 1525
1525 1524 1522 1522 1520 1519 1517 1517 1516 1515 1513 1513 1512 1510 1509 1508 1507 1508 1508 1509 1509 1509 1509 1508 1507 1507 1506 1506 1506 1505 1505 1501 1499 1501 1500 1501 1511 1509 1507 1510 1512 1515 1518 1520 1523
1524 1522 1521 1520 1518 1517 1516 1516 1514 1512 1512 1511 1510 1509 1506 1506 1506 1507 1507 1509 1509 1509 1509 1509 1508 1507 1506 1507 1506 1510 1512 1522 1500 1498 1499 1502 1519 1502 1503 1506 1510 1512 1516 1518 1520
1522 1521 1519 1518 1516 1515 1515 1513 1512 1510 1510 1509 1509 1508 1504 1504 1505 1506 1507 1508 1509 1509 1509 1509 1509 1508 1508 1513 1524 1523 1531 1522 1514 1499 1499 1502 1509 1498 1502 1505 1508 1510 1513 1515 1518
1520 1519 1517 1516 1515 1514 1513 1511 1509 1508 1508 1508 1507 1509 1504 1504 1504 1504 1505 1507 1507 1507 1507 1508 1508 1512 1515 1522 1543 1529 1529 1523 1524 1505 1501 1502 1505 1501 1502 1504 1507 1510 1511 1513 1515
1519 1517 1516 1515 1514 1512 1511 1509 1512 1511 1508 1505 1505 1504 1503 1504 1503 1503 1503 1506 1507 1508 1511 1508 1516 1521 1514 1514 1516 1520 1525 1528 1515 1504 1504 1504 1504 1502 1503 1506 1504 1505 1506 1509 1514
1518 1517 1515 1513 1513 1512 1511 1510 1513 1515 1508 1502 1500 1501 1501 1502 1504 1502 1504 1506 1506 1512 1511 1517 1523 1512 1511 1512 1515 1519 1523 1522 1511 1506 1504 1507 1505 1502 1502 1499 1500 1502 1504 1510 1514
1516 1514 1512 1512 1512 1512 1513 1514 1513 1512 1511 1497 1495 1495 1498 1500 1500 1501 1503 1504 1506 1511 1513 1521 1512 1507 1510 1511 1515 1516 1519 1516 1519 1511 1508 1508 1516 1508 1503 1502 1499 1501 1504 1509 1513
1513 1511 1511 1511 1514 1511 1513 1514 1513 1513 1523 1501 1493 1490 1492 1496 1497 1498 1500 1504 1505 1510 1512 1513 1506 1507 1509 1511 1511 1519 1506 1507 1511 1520 1536 1521 1552 1519 1513 1504 1502 1505 1506 1515 1522
1511 1510 1510 1511 1510 1511 1513 1514 1513 1515 1545 1494 1490 1489 1489 1492 1492 1492 1497 1500 1504 1505 1510 1512 1506 1507 1510 1505 1504 1512 1504 1510 1515 1527 1529 1534 1547 1525 1512 1510 1510 1507 1510 1513 1513
1509 1508 1508 1509 1509 1510 1512 1513 1515 1531 1540 1498 1489 1489 1491 1490 1490 1492 1495 1499 1500 1504 1504 1506 1502 1502 1501 1497 1499 1503 1511 1523 1532 1538 1557 1538 1545 1537 1524 1520 1512 1509 1510 1510 1513
1507 1506 1506 1506 1507 1509 1511 1514 1531 1541 1504 1499 1494 1490 1492 1493 1491 1490 1496 1500 1509 1522 1518 1507 1503 1496 1496 1502 1502 1508 1528 1561 1556 1567 1565 1541 1544 1532 1517 1513 1508 1507 1508 1510 1511
1505 1503 1502 1504 1505 1509 1511 1516 1532 1515 1511 1496 1492 1490 1494 1490 1491 1492 1497 1506 1501 1505 1521 1524 1527 1499 1493 1497 1508 1512 1521 1557 1560 1573 1560 1541 1540 1526 1512 1509 1506 1506 1506 1508 1511
1502 1500 1500 1502 1504 1507 1511 1530 1524 1513 1502 1500 1494 1493 1493 1488 1489 1492 1500 1504 1498 1499 1517 1523 1517 1494 1493 1493 1497 1513 1524 1522 1555 1562 1562 1554 1531 1515 1511 1510 1508 1509 1509 1511 1510
1500 1499 1499 1501 1503 1507 1512 1520 1512 1505 1501 1499 1503 1495 1498 1494 1495 1497 1501 1491 1493 1491 1493 1504 1517 1497 1493 1493 1498 1501 1509 1534 1547 1557 1557 1558 1548 1538 1515 1512 1509 1508 1509 1509 1509
1500 1499 1501 1500 1504 1507 1518 1517 1507 1501 1501 1500 1500 1499 1495 1493 1495 1499 1497 1486 1484 1488 1490 1501 1510 1507 1498 1500 1507 1510 1518 1532 1540 1552 1567 1568 1551 1514 1511 1510 1514 1511 1509 1510 1511
1500 1502 1502 1503 1507 1511 1513 1509 1505 1500 1499 1498 1497 1497 1495 1490 1491 1497 1493 1486 1478 1482 1495 1495 1509 1520 1509 1495 1496 1497 1508 1519 1543 1544 1560 1558 1544 1506 1507 1504 1506 1508 1507 1511 1511
1502 1503 1505 1506 1514 1514 1508 1506 1503 1501 1499 1497 1497 1493 1490 1492 1496 1487 1486 1477 1478 1478 1487 1492 1513 1531 1519 1508 1498 1501 1506 1516 1526 1537 1551 1552 1541 1505 1505 1505 1502 1505 1511 1511 1513
1504 1507 1507 1507 1508 1509 1509 1507 1504 1497 1497 1496 1494 1491 1491 1491 1491 1489 1485 1477 1478 1477 1477 1480 1507 1514 1530 1513 1504 1507 1505 1512 1514 1536 1544 1540 1522 1508 1504 1502 1502 1506 1508 1511 1512
1506 1509 1510 1510 1509 1509 1510 1508 1505 1503 1496 1493 1491 1491 1490 1494 1491 1490 1484 1481 1478 1478 1479 1483 1502 1503 1500 1499 1498 1500 1504 1506 1508 1516 1522 1519 1524 1506 1500 1499 1503 1506 1510 1510 1516
1507 1510 1509 1510 1509 1508 1508 1506 1503 1501 1499 1492 1493 1486 1487 1491 1489 1489 1488 1485 1484 1479 1482 1487 1503 1496 1503 1496 1496 1503 1501 1503 1504 1511 1511 1514 1517 1499 1499 1501 1505 1509 1508 1508 1512
1509 1510 1511 1511 1510 1510 1508 1505 1501 1500 1490 1488 1487 1487 1487 1485 1484 1485 1484 1485 1484 1483 1485 1490 1498 1505 1516 1504 1500 1515 1506 1504 1511 1511 1511 1518 1507 1504 1500 1501 1502 1503 1505 1504 1508
Wind_Speed
7 7 7 7 8 8 9 9 10 11 12 12 12 11 9 8 8 7 5 5 6 7 7 3 2 4 2 3 4 2 4 1 4 4 3 8 5 12 3 12 3 5 7 17 26
8 8 8 8 9 8 9 9 11 11 11 12 12 11 10 9 3 1 2 4 5 5 4 1 2 3 1 3 2 4 4 6 4 3 3 14 11 16 5 10 1 6 8 26 28
8 9 10 9 10 10 10 10 11 12 11 12 12 11 10 6 1 4 4 4 2 2 4 2 4 3 3 2 2 2 3 1 4 6 6 11 11 12 12 5 12 19 24 32 28
9 10 11 11 11 11 11 10 11 12 11 12 12 10 9 3 1 4 6 3 5 8 5 3 4 2 3 3 5 3 6 4 5 4 8 6 11 5 20 6 14 20 25 30 28
9 10 11 12 12 12 12 11 12 12 11 11 12 10 6 3 2 5 5 4 7 5 5 5 8 3 2 3 6 1 4 5 9 12 12 9 15 7 19 7 14 24 26 28 26
11 12 12 13 13 13 12 12 12 12 11 11 11 10 6 2 3 2 2 2 3 4 6 8 5 4 2 2 1 6 11 13 8 4 7 9 5 11 7 11 23 27 27 26 25
12 12 13 14 14 14 13 13 13 12 12 11 11 11 8 7 6 4 2 3 0 2 3 6 7 6 4 4 8 5 6 6 2 5 3 10 3 8 13 20 28 29 28 25 24
14 14 13 14 14 14 13 14 13 12 12 11 10 10 6 5 8 7 2 5 2 2 2 2 6 4 1 4 6 6 5 5 6 1 5 5 7 6 19 29 29 30 29 28 25
14 15 15 14 14 14 13 14 13 11 10 9 9 6 6 5 8 6 6 4 2 4 3 3 3 2 2 4 5 7 2 3 10 4 1 4 6 5 23 26 24 28 30 30 27
15 15 15 15 14 13 12 11 8 6 6 7 9 5 5 2 2 4 7 4 2 7 1 2 3 3 4 4 3 1 4 4 6 5 2 2 4 1 21 22 19 22 29 30 29
15 15 14 14 13 11 8 2 3 3 6 6 2 6 7 3 4 5 7 8 3 2 2 4 5 2 3 2 4 2 2 4 5 5 2 3 2 3 15 15 18 25 30 31 30
15 14 13 12 10 6 5 6 8 6 9 9 14 20 19 16 5 4 9 7 4 2 2 6 2 5 2 3 1 2 3 5 6 3 3 4 1 2 8 16 24 24 29 29 27
15 15 13 10 7 2 5 7 5 5 3 11 12 14 16 12 8 9 13 7 3 4 3 4 3 4 3 3 2 3 4 3 4 5 3 3 7 5 2 10 14 19 24 28 29
15 14 13 8 3 2 6 3 3 4 5 7 4 6 13 10 5 17 17 7 2 7 7 4 5 2 2 4 6 1 5 1 2 4 1 5 3 6 5 8 7 1 18 17 9
15 14 11 7 5 2 4 3 1 1 3 3 3 2 10 15 5 8 18 13 7 5 5 5 2 1 3 4 5 6 3 2 3 3 3 6 4 7 5 6 6 7 9 15 18
14 15 11 9 6 4 4 5 3 5 6 6 0 2 4 4 4 4 11 9 5 3 1 6 4 3 5 1 4 6 5 8 4 3 4 4 4 6 3 5 6 11 20 21 20
13 13 11 7 3 6 6 5 5 4 5 5 2 2 2 2 3 3 5 4 5 4 2 3 3 3 4 2 3 6 6 3 4 5 5 3 1 8 6 4 7 12 19 21 21
14 12 11 7 6 8 7 4 3 5 5 5 4 2 6 6 3 5 5 5 3 4 3 4 4 4 3 4 6 2 7 6 3 2 4 4 2 5 4 5 7 15 16 18 15
14 10 7 5 9 13 7 3 7 6 3 6 7 1 3 2 4 3 7 6 8 8 6 4 4 3 3 3 6 3 2 4 8 3 3 3 6 5 4 3 3 4 9 17 10
13 5 1 4 14 13 4 6 4 4 5 2 2 1 1 2 4 7 7 5 5 11 8 5 0 2 2 5 5 4 6 4 3 3 2 4 4 5 5 8 5 6 9 10 8
6 2 2 8 16 6 4 6 4 6 4 1 2 3 4 2 5 4 8 5 6 4 7 5 2 5 1 1 5 2 3 7 5 4 5 1 6 6 4 3 4 8 11 10 14
3 3 6 15 3 2 3 4 3 4 2 3 1 4 4 3 3 5 9 6 6 11 10 7 4 4 8 2 1 1 5 6 5 3 1 3 5 2 5 9 14 18 15 10 8
3 3 6 3 2 2 5 4 4 2 3 2 3 5 1 3 3 3 4 2 4 9 10 8 0 2 8 5 3 5 3 5 6 4 4 5 5 4 4 5 17 15 10 12 9
2 2 2 4 1 3 2 4 4 6 7 6 5 2 2 2 1 3 3 2 4 3 4 15 4 7 6 7 5 3 4 4 5 4 5 5 5 5 7 8 10 11 9 8 11
4 1 2 2 2 2 1 3 3 5 4 4 3 6 3 2 3 3 2 5 4 4 4 4 7 5 2 5 3 6 5 6 4 6 5 4 6 8 7 8 10 7 5 3 5
4 3 2 2 5 1 2 2 3 4 5 4 4 6 6 6 6 2 1 2 1 5 4 2 3 4 3 2 5 5 2 6 4 4 2 3 6 6 10 6 3 7 3 4 5
6 4 2 3 4 1 2 3 4 3 8 12 5 2 4 4 4 1 2 3 3 2 2 3 5 3 4 2 3 3 1 2 3 0 1 5 4 5 5 3 4 8 7 13 14
Wind_Direction
3 354 351 353 350 347 350 350 347 347 347 349 346 344 336 316 293 275 275 267 255 261 264 226 233 328 19 53 41 87 63 150 196 172 167 159 122 166 223 147 124 214 195 169 164
351 341 338 343 337 340 340 344 340 340 343 343 344 342 340 334 323 304 304 273 255 248 235 222 348 22 66 59 66 84 109 220 177 178 172 163 156 162 157 162 123 120 154 168 170
337 330 331 333 331 331 334 336 335 332 338 338 343 342 343 351 45 20 333 287 271 173 119 59 15 76 74 10 42 126 181 236 168 217 144 158 169 170 155 236 205 169 162 175 174
327 324 324 324 322 326 327 330 327 328 333 334 338 342 343 354 110 1 353 341 112 112 89 60 29 87 59 22 17 2 239 229 304 347 174 193 187 169 178 251 213 184 174 174 180
321 317 317 317 319 320 322 324 322 322 325 328 329 338 347 319 327 332 345 92 109 92 49 73 45 52 52 337 346 166 288 285 296 290 264 212 190 179 207 257 185 174 175 181 184
316 313 314 313 314 315 317 316 315 313 316 318 318 328 329 301 223 327 345 119 109 53 53 53 25 21 76 347 88 317 299 297 319 283 256 164 150 182 213 194 177 179 182 186 188
312 312 312 309 309 310 314 311 305 305 306 307 309 317 298 251 215 234 334 229 193 1 37 35 13 2 344 335 330 311 351 351 241 202 176 123 85 230 212 185 179 184 187 187 193
309 308 309 308 308 308 310 305 302 301 298 300 302 308 269 232 235 236 244 225 244 344 294 9 352 336 340 319 14 28 49 9 300 109 195 153 254 214 190 179 181 187 191 194 196
306 307 308 310 309 307 311 303 304 301 293 288 292 292 270 238 237 239 231 205 231 326 290 292 309 67 36 70 22 2 318 336 320 337 133 147 251 248 185 180 186 189 195 199 202
307 306 308 310 310 311 315 306 303 300 280 279 262 292 241 172 272 252 220 218 292 338 75 103 87 66 42 74 188 297 337 314 247 298 287 180 311 105 186 190 194 196 200 204 208
306 307 306 308 311 324 332 316 280 261 272 247 238 265 283 259 269 231 225 199 261 337 54 18 57 195 212 182 116 133 223 251 262 281 268 245 226 229 194 207 205 203 207 210 215
312 308 307 311 311 332 24 71 40 303 305 272 260 253 256 266 295 243 177 165 148 182 19 16 243 218 214 220 207 198 257 282 292 335 142 7 325 320 186 226 222 204 208 214 216
317 315 313 316 305 291 100 57 19 340 273 289 246 245 240 235 223 224 189 182 136 147 157 160 225 82 198 246 230 236 192 236 218 341 38 10 349 343 0 302 268 238 213 215 221
321 320 317 326 273 231 159 61 15 352 45 278 257 241 202 178 247 223 209 184 167 189 169 221 261 229 303 255 143 266 216 202 39 51 292 32 270 294 308 316 349 203 190 209 142
324 318 320 316 276 226 174 140 24 331 356 249 225 243 181 177 154 200 202 194 165 185 112 242 211 327 348 207 171 221 118 57 72 84 73 7 78 269 341 338 9 40 106 126 153
324 314 315 302 271 219 165 172 145 47 254 328 135 162 135 220 161 110 181 203 200 167 336 238 264 248 214 9 161 139 77 47 54 73 49 305 120 297 338 297 310 96 122 143 157
321 308 304 288 246 184 181 165 55 145 328 322 333 53 143 203 197 113 148 167 159 109 269 317 230 267 203 132 64 76 59 359 2 16 206 303 66 240 301 314 242 150 153 157 164
321 307 292 269 231 183 176 60 159 229 258 299 322 287 191 160 194 169 130 184 214 101 118 144 316 197 174 185 170 84 140 146 192 187 264 302 299 280 303 307 203 190 165 161 157
327 313 290 238 193 180 173 99 205 213 284 329 322 19 335 261 170 146 176 199 201 166 168 145 271 297 229 158 121 177 118 159 104 8 60 280 292 308 28 1 313 342 141 144 161
335 330 221 187 175 179 94 221 229 233 319 347 298 354 333 289 163 157 179 210 209 187 153 211 17 239 271 106 44 159 151 78 15 148 220 291 284 240 259 216 241 230 172 163 138
347 83 87 149 162 171 164 226 261 280 274 274 274 303 266 256 189 207 200 245 209 147 128 130 102 286 1 83 182 116 100 54 112 106 153 171 269 219 254 290 202 233 226 223 232
27 57 133 143 79 51 161 205 306 284 308 310 248 231 253 300 257 219 207 232 163 148 156 188 154 204 239 270 230 200 133 133 119 217 85 145 272 309 258 210 204 205 223 225 261
55 78 149 118 123 304 297 284 264 273 260 265 270 222 44 295 308 216 212 251 338 156 165 182 153 29 347 2 20 84 84 101 107 93 184 123 268 310 280 247 226 228 238 260 273
47 56 122 218 97 126 350 280 276 248 253 241 259 240 333 303 14 283 311 5 353 173 210 141 125 158 186 204 148 132 155 177 119 106 169 214 278 273 261 246 227 239 267 259 250
37 85 64 291 352 345 305 296 297 324 257 240 271 224 184 260 318 296 322 329 36 14 72 111 181 169 261 217 151 153 175 167 129 159 130 226 208 260 238 235 227 182 153 86 156
64 27 21 347 305 322 173 267 239 262 227 274 218 274 178 190 192 243 336 7 279 335 79 19 179 134 40 67 157 120 147 140 75 113 304 173 263 240 312 329 227 184 224 337 9
49 30 360 19 349 7 256 288 264 341 267 242 264 204 170 206 184 310 232 326 333 233 110 82 124 79 182 336 88 24 90 101 108 124 122 185 270 347 10 62 289 299 299 310 321